CZ-3B DEB, 40193

Orbit data source: Space-Track

CZ-3B DEB, 40193 is space debris in HEO originally from a launch on Mon, 19 Dec 2011 UTC launched from the Xichang Space Center, China (XSC). Debris objects in space refer to the collection of defunct objects orbiting the Earth. Examples of debris include non-operational satellites, rocket bodies, and fragments generated from explosions, collisions, or faulty payload assembly.

Loading next visibility...
Identifier
40193, 2011-077S
Orbit
HEO
Last TLE update
5 days ago
Origin
Manufacturer
CALT
Mission
Spacecraft
Bus & Motor
Unknown
Mass
Unknown
Launch date (UTC)
2011-12-19 (13 years ago)
Launch vehicle
Unknown
Launch site
Xichang Space Center, China (XSC)
Object type
Payload
Rocket body
Debris
Shape & HBR
Unknown
Radar Cross Section
Medium (>0.1 m² and <1 m²)

Expand to show TLE details & history

TLE from 5 days ago
0 CZ-3B DEB
1 40193U 11077S   25125.24539970  .00000098  00000-0  25983-2 0  9993
2 40193  25.6350 135.3136 7420015 161.1699 257.6877  1.86782211 68534
Epoch: 2025-05-05T05:53Z
Definitive object data (Epoch: 2025-05-05T05:53:22.534Z)
Latitude
-0.0001°
Longitude
-176.33684°
Altitude
35,606.495 km
Speed
2.162 km/s
True Right ascension
09h 01m 28s
True Declination
0° 00' 00"
Sunlit
Object was in daylight at TLE epoch
Visualization TLE readout
Latitude
-18.5935°
Longitude
137.85211°
Altitude
28,277.906 km
Speed
2.948 km/s
Apparent Right ascension
06h 25m 03s
Apparent Declination
-27° 03' 27"
Sunlit
Object is in daylight
Visualization observer readout
Local Sidereal Time
02:58:53
Azimuth
135.284° SSE
Elevation
7.639°
Doppler factor
1
Orbital elements
Apogee altitude
42,145.404 km
Perigee altitude
808.424 km
Semi-major axis
27,855.051 km
Eccentricity
0.7420015
Inclination
25.635°
RAAN
135.3136°
Arg. of periapsis
161.1699°
True anomaly
198.8797°
Mean anomaly
257.6877°
Eccentric anomaly
226.73148°
Mean motion
0.46686 °/min
BSTAR
0.0025983
Orbital period
771.11 mins
Loading maneuver chart data...
Loading SW <> Apogee altitude chart data...
Loading historical data...
Loading historical data...
Loading historical data...
Loading historical data...
Loading historical data...
Loading historical data...
Loading historical data...

CZ-3B DEB Visibility forecast

Observer location: undefined°, undefined°

Span
Click to sort rows by Start time (UTC) header in descending order
Start Az.
Max El. time (UTC)
Max El. Az.
Max El.
End time (UTC)
End Az.
586 mins2025-05-09 19:09:01.619Z135.638° SSE2025-05-10 04:32:01.619Z176.283° S40.844°2025-05-10 04:55:01.619Z101.809° ESE
|